SAS650 EDDH-EKCH

Flight info

Callsign SAS650
Flight time N/A
Altitude 23000
Route LUGEG3G LUGEG P605 GESKA/N0412F220 Z711 MONAK
Aircraft CRJ9/M-SDFGIRWY/S

Departure

Time 2026-05-05 23:28
Airport Hamburg Helmut Schmidt Airport (EDDH)

Arrival

Time N/A
Airport Copenhagen Kastrup Airport (EKCH)
Time Latitude Longitude Altitude Speed Heading
2026-05-05 22:55 53.62645 10.00362 45 ft 0 kts 81°
2026-05-05 23:17 53.62641 10.00325 45 ft 4 kts 83°
2026-05-05 23:17 53.62638 10.00286 45 ft 2 kts 81°
2026-05-05 23:18 53.62640 10.00248 45 ft 4 kts 124°
2026-05-05 23:18 53.62661 10.00228 45 ft 4 kts 159°
2026-05-05 23:18 53.62672 10.00220 45 ft 1 kts 152°
2026-05-05 23:26 53.62671 10.00220 45 ft 1 kts 152°
2026-05-05 23:26 53.62632 10.00253 45 ft 11 kts 154°
2026-05-05 23:26 53.62585 10.00246 45 ft 3 kts 229°
2026-05-05 23:26 53.62568 10.00195 45 ft 0 kts 240°
2026-05-05 23:27 53.62567 10.00194 45 ft 0 kts 241°
2026-05-05 23:27 53.62567 10.00192 45 ft 0 kts 241°
2026-05-05 23:27 53.62559 10.00169 45 ft 7 kts 242°
2026-05-05 23:27 53.62548 10.00055 46 ft 12 kts 291°
2026-05-05 23:28 53.62710 9.99884 46 ft 60 kts 334°
2026-05-05 23:28 53.63308 9.99368 44 ft 130 kts 333°
2026-05-05 23:28 53.64258 9.98561 262 ft 163 kts 338°
2026-05-05 23:28 53.65309 9.97713 949 ft 171 kts 338°
2026-05-05 23:29 53.66389 9.96855 1718 ft 177 kts 341°
2026-05-05 23:29 53.67506 9.95904 2539 ft 181 kts 339°
2026-05-05 23:29 53.68647 9.94915 3356 ft 182 kts 342°
2026-05-05 23:29 53.69856 9.94640 4067 ft 177 kts
2026-05-05 23:30 53.71170 9.94703 4641 ft 200 kts
2026-05-05 23:30 53.72606 9.94838 5362 ft 212 kts 16°
2026-05-05 23:30 53.73833 9.96173 6131 ft 215 kts 52°
2026-05-05 23:30 53.74672 9.98279 6989 ft 218 kts 63°
2026-05-05 23:31 53.75338 10.00605 7854 ft 222 kts 66°
2026-05-05 23:31 53.75966 10.03011 8691 ft 226 kts 68°
2026-05-05 23:31 53.76604 10.05494 9376 ft 238 kts 66°
2026-05-05 23:31 53.77333 10.08167 9727 ft 266 kts 64°
2026-05-05 23:32 53.78200 10.11145 9857 ft 299 kts 64°
2026-05-05 23:32 53.79165 10.14489 9939 ft 332 kts 64°
2026-05-05 23:32 53.80218 10.18157 9975 ft 361 kts 64°
2026-05-05 23:32 53.81356 10.22120 10043 ft 388 kts 64°
2026-05-05 23:33 53.82461 10.25989 10696 ft 266 kts 64°
2026-05-05 23:33 53.83165 10.28482 11810 ft 208 kts 65°
2026-05-05 23:33 53.83723 10.30597 12772 ft 200 kts 65°
2026-05-05 23:33 53.84367 10.32822 13009 ft 218 kts 62°
2026-05-05 23:34 53.85084 10.35146 13497 ft 226 kts 62°
2026-05-05 23:34 53.85817 10.37533 14046 ft 230 kts 63°
2026-05-05 23:34 53.86531 10.39973 14585 ft 232 kts 64°
2026-05-05 23:34 53.87239 10.42446 15137 ft 234 kts 65°
2026-05-05 23:35 53.87946 10.44938 15692 ft 235 kts 65°
2026-05-05 23:35 53.88656 10.47448 16237 ft 237 kts 65°
2026-05-05 23:35 53.89360 10.49935 16767 ft 238 kts 65°
2026-05-05 23:35 53.90077 10.52470 17290 ft 239 kts 65°
2026-05-05 23:36 53.90792 10.55012 17812 ft 239 kts 66°
2026-05-05 23:36 53.91503 10.57559 18316 ft 239 kts 66°
2026-05-05 23:36 53.92218 10.60111 18750 ft 240 kts 66°
2026-05-05 23:36 53.92936 10.62666 19160 ft 241 kts 66°
2026-05-05 23:37 53.93662 10.65236 19559 ft 242 kts 66°
2026-05-05 23:37 53.94464 10.67749 19921 ft 244 kts 54°
2026-05-05 23:37 53.95563 10.69947 20282 ft 244 kts 45°
2026-05-05 23:37 53.96777 10.71973 20649 ft 245 kts 43°
2026-05-05 23:38 53.98011 10.73982 21006 ft 246 kts 43°
2026-05-05 23:38 53.99228 10.76041 21349 ft 247 kts 45°
2026-05-05 23:38 54.00410 10.78175 21682 ft 249 kts 47°
2026-05-05 23:38 54.01581 10.80346 22004 ft 250 kts 46°
2026-05-05 23:39 54.02763 10.82548 22174 ft 259 kts 46°
2026-05-05 23:39 54.04030 10.84896 22115 ft 279 kts 46°
2026-05-05 23:39 54.05389 10.87412 22121 ft 297 kts 46°
2026-05-05 23:39 54.06836 10.90069 22109 ft 317 kts 46°
2026-05-05 23:40 54.08398 10.92929 21917 ft 344 kts 46°
2026-05-05 23:40 54.10080 10.96014 21752 ft 368 kts 46°
2026-05-05 23:40 54.11853 10.99268 21577 ft 378 kts 46°
2026-05-05 23:40 54.13664 11.02579 21379 ft 385 kts 46°
2026-05-05 23:41 54.15503 11.05950 21167 ft 392 kts 46°
2026-05-05 23:41 54.17361 11.09383 21037 ft 395 kts 46°
2026-05-05 23:41 54.19220 11.12846 20978 ft 397 kts 47°
2026-05-05 23:41 54.21083 11.16325 20950 ft 397 kts 47°
2026-05-05 23:42 54.22947 11.19814 20931 ft 397 kts 47°
2026-05-05 23:42 54.24807 11.23302 20924 ft 397 kts 47°
2026-05-05 23:42 54.26670 11.26795 20917 ft 397 kts 46°
2026-05-05 23:42 54.28510 11.30242 20913 ft 397 kts 46°
2026-05-05 23:43 54.30372 11.33731 20911 ft 397 kts 46°
2026-05-05 23:43 54.32230 11.37226 20910 ft 397 kts 47°
2026-05-05 23:43 54.34085 11.40721 20907 ft 397 kts 47°
2026-05-05 23:43 54.35939 11.44223 20907 ft 396 kts 47°
2026-05-05 23:44 54.37792 11.47723 20907 ft 396 kts 47°
2026-05-05 23:44 54.39620 11.51173 20907 ft 396 kts 47°
2026-05-05 23:44 54.41479 11.54680 20912 ft 396 kts 47°
2026-05-05 23:44 54.43329 11.58175 20912 ft 396 kts 47°
2026-05-05 23:45 54.45178 11.61676 20928 ft 396 kts 46°
2026-05-05 23:45 54.47022 11.65186 20914 ft 396 kts 46°
2026-05-05 23:45 54.48874 11.68698 20911 ft 396 kts 46°
2026-05-05 23:45 54.50728 11.72208 20913 ft 396 kts 46°
2026-05-05 23:46 54.52584 11.75722 20913 ft 397 kts 46°
2026-05-05 23:46 54.54303 11.78991 20913 ft 397 kts 46°
2026-05-05 23:46 54.56071 11.82362 20913 ft 397 kts 46°
2026-05-05 23:46 54.57921 11.85898 20914 ft 397 kts 46°
2026-05-05 23:47 54.59772 11.89438 20917 ft 397 kts 46°
2026-05-05 23:47 54.60996 11.91782 20897 ft 397 kts 46°
2026-05-05 23:47 54.63006 11.95025 20903 ft 394 kts 35°
2026-05-05 23:47 54.65265 11.97677 20919 ft 392 kts 30°
2026-05-05 23:48 54.67618 12.00178 20559 ft 403 kts 28°
2026-05-05 23:48 54.70041 12.02774 20095 ft 416 kts 29°
2026-05-05 23:48 54.72510 12.05525 19641 ft 428 kts 31°
2026-05-05 23:48 54.75011 12.08431 19210 ft 437 kts 31°
2026-05-05 23:49 54.77444 12.11256 18801 ft 445 kts 31°
2026-05-05 23:49 54.79819 12.14017 18405 ft 451 kts 31°
2026-05-05 23:49 54.82440 12.17072 17944 ft 457 kts 31°
2026-05-05 23:49 54.85053 12.20117 17450 ft 444 kts 32°
2026-05-05 23:50 54.87565 12.23054 16944 ft 428 kts 31°
2026-05-05 23:50 54.89997 12.25895 16440 ft 414 kts 31°
2026-05-05 23:50 54.92345 12.28645 15940 ft 397 kts 31°
2026-05-05 23:50 54.94580 12.31277 15431 ft 383 kts 31°
2026-05-05 23:51 54.96653 12.33736 14984 ft 377 kts 32°
2026-05-05 23:51 54.98798 12.36295 14511 ft 371 kts 32°
2026-05-05 23:51 55.00930 12.38642 14044 ft 363 kts 21°
2026-05-05 23:51 55.03326 12.39614 13586 ft 349 kts 360°
2026-05-05 23:52 55.05732 12.39690 13073 ft 343 kts 355°
2026-05-05 23:52 55.08095 12.39521 12576 ft 338 kts 353°
2026-05-05 23:52 55.10433 12.39341 12085 ft 334 kts 355°
2026-05-05 23:52 55.12749 12.39299 11600 ft 332 kts 358°
2026-05-05 23:53 55.15045 12.39396 11123 ft 329 kts 359°
2026-05-05 23:53 55.17214 12.39541 10678 ft 326 kts 359°
2026-05-05 23:53 55.19441 12.39665 10171 ft 315 kts 359°
2026-05-05 23:53 55.21580 12.39773 9776 ft 302 kts 359°
2026-05-05 23:54 55.23641 12.39875 9327 ft 291 kts 359°
2026-05-05 23:54 55.25650 12.39973 8745 ft 287 kts 360°
2026-05-05 23:54 55.27628 12.40071 8166 ft 282 kts
2026-05-05 23:54 55.29581 12.40169 7603 ft 278 kts
2026-05-05 23:55 55.31497 12.40263 7059 ft 273 kts
2026-05-05 23:55 55.33378 12.40357 6529 ft 268 kts
2026-05-05 23:55 55.35217 12.40452 5987 ft 262 kts
2026-05-05 23:55 55.36933 12.40532 5463 ft 258 kts
2026-05-05 23:56 55.38735 12.40626 4934 ft 259 kts
2026-05-05 23:56 55.40513 12.40719 4379 ft 253 kts
2026-05-05 23:56 55.42256 12.40810 3828 ft 248 kts
2026-05-05 23:56 55.43913 12.40885 3538 ft 229 kts
2026-05-05 23:57 55.45454 12.40984 3040 ft 215 kts
2026-05-05 23:57 55.46878 12.41426 2562 ft 202 kts 19°
2026-05-05 23:57 55.48092 12.42453 2207 ft 183 kts 36°
2026-05-05 23:57 55.49068 12.43747 1859 ft 169 kts 40°
2026-05-05 23:58 55.49822 12.45177 1572 ft 155 kts 50°
2026-05-05 23:58 55.50543 12.46541 1137 ft 148 kts 38°
2026-05-05 23:58 55.51313 12.47752 847 ft 170 kts 44°
2026-05-05 23:58 55.52133 12.49355 897 ft 195 kts 49°
2026-05-05 23:59 55.53079 12.51211 932 ft 204 kts 44°
2026-05-05 23:59 55.54075 12.52793 900 ft 171 kts 39°
2026-05-05 23:59 55.54896 12.53931 800 ft 135 kts 37°
2026-05-05 23:59 55.55636 12.54985 550 ft 143 kts 38°
2026-05-06 00:00 55.56394 12.56105 569 ft 151 kts 39°
2026-05-06 00:00 55.57101 12.57171 550 ft 123 kts 38°
2026-05-06 00:00 55.57777 12.58170 390 ft 131 kts 38°
2026-05-06 00:00 55.58492 12.59263 257 ft 139 kts 40°
2026-05-06 00:01 55.59252 12.60419 71 ft 149 kts 40°
2026-05-06 00:01 55.60024 12.61658 391 ft 158 kts 41°
2026-05-06 00:01 55.60880 12.63060 938 ft 172 kts 41°
2026-05-06 00:01 55.61804 12.64437 1680 ft 174 kts 37°
2026-05-06 00:02 55.62730 12.65668 2683 ft 152 kts 38°
2026-05-06 00:02 55.63606 12.66817 3166 ft 176 kts 38°
2026-05-06 00:02 55.64536 12.68411 3480 ft 192 kts 61°